Temperature
19 19 19 19 19 19 19 19 19 19 19 19 19 19 19 19 19 19 19 19 19 19 19 19 18 18 18 18 18 18 18 18 18 18 18 18 18 18 18 18 18 18 18
19 19 19 19 19 19 19 19 19 19 19 19 19 19 19 19 19 19 19 19 19 19 19 19 18 18 18 18 18 18 18 18 18 18 18 18 18 18 18 18 18 18 18
20 19 19 19 19 19 19 19 19 19 19 19 19 19 19 19 19 19 19 19 19 19 19 19 18 18 18 18 18 18 18 18 18 18 18 18 18 18 18 18 18 18 18
20 20 20 19 19 19 19 19 19 19 19 19 19 19 19 19 19 19 19 19 19 19 19 19 18 18 18 18 18 18 18 18 18 18 18 18 18 18 18 18 18 18 18
20 20 20 19 19 20 20 19 19 19 19 19 19 19 19 19 19 19 19 19 19 19 19 19 18 18 18 18 18 18 18 18 18 18 18 18 18 18 18 18 18 18 18
20 20 20 20 20 20 20 19 19 19 19 19 19 19 19 19 19 19 19 19 19 19 19 19 18 18 18 18 18 18 18 18 18 18 18 18 18 18 18 18 18 18 18
20 20 20 20 20 20 20 20 19 19 19 19 19 19 19 19 19 19 19 19 19 19 19 19 18 18 18 18 18 18 18 18 18 18 18 18 18 18 18 18 18 18 18
20 20 20 20 20 20 20 20 19 19 19 19 19 19 19 19 19 19 19 19 19 19 19 19 18 18 18 18 18 18 18 18 18 18 18 18 18 18 18 18 18 18 18
20 20 20 20 20 20 20 19 19 19 19 19 19 19 19 19 19 19 19 19 19 19 19 18 18 18 18 18 18 18 18 18 18 18 18 18 18 18 18 18 18 18 18
20 20 20 20 20 20 20 19 19 19 19 19 19 19 19 19 19 19 19 19 19 19 18 18 18 18 18 18 18 18 18 18 18 18 18 18 18 18 18 18 18 18 18
20 20 20 20 20 20 20 19 19 19 19 19 19 19 19 19 19 19 19 19 19 19 18 18 18 18 18 18 18 18 18 18 18 18 18 18 18 18 18 18 18 18 18
20 20 20 20 20 20 20 19 19 19 19 19 19 19 19 19 19 19 19 19 19 18 18 19 18 18 18 18 18 18 18 18 18 18 18 18 18 18 18 18 18 18 18
20 20 20 20 20 20 20 19 19 19 19 19 19 19 19 19 19 19 19 19 18 18 18 18 18 18 18 18 18 18 18 18 18 18 18 18 18 18 18 18 18 18 18
20 20 20 20 20 20 20 20 19 19 19 19 19 19 19 19 19 19 19 19 18 18 18 18 18 18 18 18 18 18 18 18 18 18 18 18 18 18 18 18 18 18 18
21 20 20 20 20 20 20 20 19 19 19 19 19 19 19 19 19 19 19 19 18 18 18 18 18 18 18 18 18 18 18 18 18 18 18 18 18 18 18 18 18 18 18
21 21 20 20 20 20 20 20 20 19 19 19 19 19 19 19 19 19 19 19 18 18 18 18 18 18 18 18 18 18 18 18 18 18 18 18 18 18 18 18 18 18 18
21 21 21 20 20 20 20 20 20 19 19 19 19 19 19 19 19 19 19 19 18 18 18 18 18 18 18 18 18 18 18 18 18 18 18 18 18 18 18 18 18 18 18
22 21 21 21 20 20 20 20 20 19 19 19 19 19 19 19 19 19 19 19 18 18 18 18 18 18 18 18 18 18 18 18 18 18 18 18 18 18 18 18 18 18 18
22 21 21 21 21 20 20 20 20 19 19 19 19 19 19 19 19 19 19 19 18 18 18 18 18 18 18 18 18 18 18 18 18 18 18 18 18 18 18 18 18 18 18
22 21 21 21 20 20 20 20 19 19 19 19 19 19 19 19 19 19 19 19 18 18 18 18 18 18 18 18 18 18 18 18 18 18 18 18 18 18 18 18 18 18 17
22 21 21 21 20 20 20 20 20 19 19 19 19 19 19 19 19 19 19 19 19 18 18 18 18 18 18 18 18 18 18 18 18 18 18 18 18 18 18 18 18 18 17
22 22 21 21 21 20 20 20 20 19 19 19 19 19 19 19 19 19 19 19 19 18 18 18 18 18 18 18 18 18 18 18 18 18 18 18 18 18 18 18 18 17 17
22 22 21 21 21 20 20 20 19 19 19 19 19 19 19 19 19 19 19 19 19 18 18 18 18 18 18 18 18 18 18 18 18 17 18 18 18 17 18 18 17 17 17
23 22 22 21 21 21 20 20 20 20 20 19 19 19 19 19 19 19 19 18 18 18 18 18 18 18 18 18 18 18 18 18 17 17 17 17 17 17 17 17 17 17 17
23 22 22 22 21 21 20 20 20 20 20 19 19 19 19 19 19 19 18 18 18 18 18 18 18 18 18 18 18 18 18 18 17 17 17 17 17 17 17 17 17 17 17
23 22 22 22 21 21 20 20 20 20 19 19 19 19 19 19 19 19 18 18 18 18 18 18 18 18 18 18 18 18 17 17 17 17 17 17 17 17 17 17 17 17 17
Wind_Speed
4 7 13 14 15 15 15 15 15 14 14 15 15 15 16 16 16 16 16 15 15 14 14 14 13 13 13 13 13 13 13 12 12 12 12 11 11 12 12 12 12 12 14
7 10 13 14 15 15 15 15 15 14 14 14 15 15 15 15 15 15 14 14 14 14 13 13 12 12 12 12 12 12 12 12 11 11 11 11 11 11 11 12 12 12 14
10 11 13 14 14 15 15 14 14 14 14 14 14 14 14 14 14 14 13 13 13 13 13 12 12 12 12 11 11 11 11 11 10 10 9 8 9 10 10 11 12 13 13
11 12 13 14 15 15 14 14 14 13 13 13 14 14 13 13 13 13 13 12 12 12 12 12 11 11 11 10 10 10 10 9 9 8 7 7 8 9 10 11 12 12 12
10 11 13 14 14 14 13 13 13 13 13 13 13 13 13 13 12 12 12 12 11 11 11 11 11 10 9 9 8 8 8 7 7 6 6 6 7 9 10 11 11 11 11
9 11 13 14 14 13 13 12 12 12 12 12 12 12 12 12 12 11 11 11 10 10 9 10 10 9 8 8 7 6 5 5 5 5 6 6 7 9 11 11 10 11 11
9 10 12 13 13 13 12 12 12 12 12 12 12 11 11 10 10 11 11 10 10 9 9 9 9 8 7 7 6 5 4 5 5 6 6 6 8 10 11 11 10 11 11
10 9 11 13 13 12 12 11 11 12 12 12 11 10 9 9 9 9 9 9 9 8 8 8 8 7 6 6 5 4 4 4 5 6 6 7 9 11 11 11 10 10 10
10 8 8 10 11 11 11 11 11 12 11 11 10 9 8 8 9 9 9 8 8 8 8 7 7 6 6 5 4 3 3 4 5 6 6 7 9 11 12 12 11 10 10
8 7 7 8 8 9 9 10 10 11 10 10 9 8 8 7 8 9 8 8 7 7 7 7 5 5 5 4 3 2 2 2 4 5 5 7 10 11 11 11 11 11 10
9 6 6 6 7 7 8 8 8 9 9 8 7 7 7 5 5 7 7 7 7 6 6 6 5 5 3 2 2 3 2 3 4 4 5 8 9 10 10 11 11 11 10
10 8 6 6 6 6 7 7 6 5 6 5 5 5 5 5 5 6 7 7 6 6 5 4 4 3 2 1 1 2 3 3 4 4 7 9 9 9 9 10 10 10 10
10 10 8 7 6 5 4 6 4 4 4 4 4 5 5 4 3 3 3 4 4 4 3 2 2 1 1 1 2 2 4 4 4 5 7 10 10 10 10 10 10 10 10
10 9 8 8 7 6 7 5 4 4 3 4 5 6 5 3 3 3 2 3 3 3 2 2 2 2 2 2 4 3 4 5 5 6 7 10 10 9 10 10 10 10 10
11 10 9 8 8 6 5 4 5 4 4 5 5 5 6 4 3 3 2 2 2 2 2 2 2 1 1 2 3 4 4 6 7 7 8 10 9 9 9 10 10 10 9
11 10 9 8 7 6 5 4 3 4 5 5 5 5 6 5 4 2 2 1 2 3 3 3 3 2 1 2 2 3 4 5 7 7 7 9 10 10 10 10 10 9 9
12 10 9 9 7 6 5 5 4 4 5 5 5 6 6 6 5 3 2 1 1 2 3 2 1 1 1 2 1 2 2 4 5 7 7 8 8 9 10 10 10 9 9
11 10 10 10 8 6 5 4 3 4 5 4 5 5 6 6 6 4 2 1 1 2 2 2 1 1 1 1 1 1 2 3 4 6 6 7 7 7 9 11 10 10 9
12 11 9 8 8 7 5 4 3 3 4 4 5 5 5 6 6 4 2 1 2 2 1 1 1 2 1 1 1 1 1 2 2 4 4 6 7 7 8 9 11 11 10
11 10 9 8 8 7 4 3 3 3 3 3 4 4 5 5 6 4 2 1 2 2 1 1 1 1 1 1 1 1 1 2 2 2 3 4 6 7 7 7 7 8 10
10 10 9 8 7 6 4 4 3 3 3 3 3 5 5 5 5 4 2 2 2 2 1 1 1 1 0 1 2 2 2 1 1 2 2 2 3 4 5 6 7 6 5
12 10 10 9 8 7 5 4 3 4 3 3 2 3 4 5 5 4 3 3 2 2 1 1 2 1 0 1 2 2 2 3 2 1 1 2 2 2 3 5 6 6 5
13 12 11 10 8 7 6 4 4 3 2 2 2 2 2 5 5 4 4 3 2 2 2 1 1 2 1 0 1 3 2 2 2 3 2 1 1 1 2 3 5 6 6
14 12 11 10 9 7 7 6 7 5 4 3 3 2 2 3 4 5 4 3 3 2 2 1 1 1 2 1 1 0 2 3 2 1 3 2 1 1 2 2 3 5 6
14 12 11 10 9 8 8 8 8 5 4 3 3 3 2 2 3 4 4 3 3 2 2 1 1 2 1 2 1 0 1 1 2 2 1 2 2 2 2 3 3 4 6
12 11 11 10 9 9 8 8 8 7 6 5 4 4 3 2 2 3 3 2 3 2 2 2 1 2 1 1 1 1 1 1 1 2 2 2 2 3 2 2 3 4 6
Wind_Direction
146 143 128 122 118 116 115 115 114 114 114 114 114 113 112 113 115 117 118 120 122 124 125 124 123 124 123 125 125 127 126 123 121 122 125 127 129 129 127 124 121 121 123
144 140 128 124 121 120 119 118 117 117 117 118 118 117 116 117 118 119 120 121 122 125 128 127 128 128 127 128 129 128 129 129 128 128 128 132 134 134 134 131 128 130 129
131 133 129 125 124 123 123 122 121 120 120 120 120 120 121 123 123 124 123 123 124 127 131 133 133 131 130 130 129 130 130 131 131 131 128 126 133 137 140 138 136 135 134
133 134 131 128 127 125 124 125 125 124 122 123 124 124 125 126 127 127 127 126 128 130 132 134 134 135 134 132 131 132 132 134 134 130 130 131 136 140 142 142 143 142 142
131 133 134 130 128 126 124 125 127 127 127 128 128 128 128 128 129 130 131 131 132 132 133 136 137 139 138 136 135 134 135 140 140 128 133 134 140 146 149 150 149 149 148
130 136 138 131 130 128 126 127 129 131 131 130 131 131 131 132 133 135 134 134 135 136 137 141 143 143 143 139 136 136 138 149 140 131 138 142 147 155 157 158 157 155 153
136 142 142 134 129 129 128 127 130 135 134 133 134 133 133 136 137 138 140 141 140 141 143 145 150 148 145 141 141 136 128 145 146 146 148 153 156 160 163 162 163 162 161
142 144 144 138 134 131 130 130 133 138 138 138 138 139 140 142 145 145 144 146 146 147 149 152 150 151 152 150 151 149 139 149 143 154 159 167 170 170 166 165 165 165 166
142 142 142 143 140 136 135 135 136 139 141 141 142 144 147 152 154 156 157 155 155 157 159 157 157 158 162 164 163 160 145 148 142 154 164 168 172 172 171 170 169 168 167
143 146 144 143 143 144 145 141 140 143 146 148 149 150 153 156 159 164 166 166 163 162 166 168 166 169 170 169 173 177 155 128 141 160 162 169 168 171 173 173 172 172 171
147 154 148 143 147 149 149 148 150 151 155 158 157 154 150 150 158 165 167 161 160 164 170 174 176 183 188 182 180 160 139 138 146 149 161 171 170 173 174 173 172 170 171
158 164 164 156 157 157 153 145 152 157 162 162 157 145 145 152 165 166 169 163 160 167 176 174 173 189 186 194 203 144 135 144 143 157 171 172 173 173 174 174 175 172 172
163 165 166 165 163 161 142 145 152 156 168 162 153 155 148 151 164 166 166 164 167 167 176 184 205 214 212 204 185 167 152 142 155 168 173 173 176 179 177 176 177 175 178
153 154 155 156 153 151 145 150 155 156 166 164 161 154 147 143 141 156 168 174 179 183 187 210 225 225 218 189 182 167 159 156 166 165 172 175 177 178 175 176 177 179 183
149 153 155 152 148 145 138 150 154 161 163 168 167 160 152 143 138 145 163 174 191 187 197 202 207 206 190 182 179 166 166 169 169 169 174 178 180 178 179 179 179 183 190
155 155 157 155 153 147 149 154 152 161 165 162 167 167 158 153 152 144 142 167 199 190 181 179 190 191 187 173 172 166 164 165 165 168 175 184 188 187 184 185 184 189 191
158 155 158 158 154 151 153 163 154 166 162 159 172 167 158 153 154 147 140 145 205 193 161 158 168 135 147 147 153 164 155 159 164 169 180 183 188 194 191 191 193 197 199
157 157 163 160 157 159 160 164 156 160 160 161 159 154 149 150 146 141 133 142 147 123 125 129 128 105 101 129 163 197 159 154 163 170 178 185 190 197 198 198 198 200 204
159 160 162 155 159 162 161 159 154 143 148 152 144 145 145 138 139 140 136 153 127 105 98 128 113 131 141 155 181 176 173 175 184 181 178 187 195 200 200 204 206 207 209
159 158 157 156 161 157 148 134 122 114 125 135 143 149 146 143 142 140 137 128 119 108 93 89 108 119 154 166 163 149 208 208 189 189 189 186 197 203 201 202 205 216 218
160 158 160 158 163 151 148 147 143 150 146 145 162 155 149 147 144 139 141 129 122 119 132 119 118 111 43 105 88 33 354 343 191 203 197 180 194 200 186 191 195 201 210
168 167 164 164 165 161 161 162 157 152 158 160 156 152 154 149 150 151 143 149 141 126 97 86 116 116 228 124 124 102 25 355 343 288 222 179 181 187 189 189 189 190 191
173 173 171 170 168 165 158 142 127 104 91 93 125 159 164 149 145 145 146 148 143 137 140 141 136 131 151 288 133 141 142 209 306 328 316 288 201 188 215 187 189 199 199
179 174 169 170 169 167 159 152 152 157 166 186 176 166 160 152 148 148 146 139 140 138 145 163 125 133 137 163 296 99 157 156 145 304 323 318 277 216 218 205 204 202 202
175 172 171 170 171 169 167 165 163 165 173 165 154 149 159 155 153 152 146 140 144 148 151 130 100 122 140 162 171 141 69 74 113 147 259 301 318 291 237 217 215 206 206
171 172 171 172 177 174 173 172 170 168 166 157 159 162 169 166 160 156 153 150 154 154 155 149 139 127 128 123 139 128 136 147 186 160 199 244 267 281 263 238 222 218 214
Height
1522 1522 1522 1522 1522 1523 1524 1525 1526 1527 1528 1528 1529 1530 1531 1532 1533 1534 1535 1536 1537 1538 1539 1540 1541 1543 1544 1545 1547 1548 1549 1550 1551 1552 1552 1553 1554 1554 1555 1556 1556 1557 1557
1522 1523 1523 1524 1524 1525 1525 1526 1527 1528 1529 1529 1530 1531 1532 1533 1534 1535 1536 1537 1538 1539 1540 1541 1543 1544 1545 1546 1548 1549 1550 1551 1552 1552 1553 1554 1554 1555 1556 1556 1557 1557 1558
1523 1524 1524 1525 1525 1526 1527 1527 1528 1529 1530 1530 1531 1532 1533 1534 1535 1536 1537 1538 1539 1540 1541 1542 1543 1545 1546 1547 1549 1550 1551 1552 1553 1553 1554 1555 1555 1556 1556 1557 1557 1558 1558
1524 1525 1526 1526 1526 1527 1528 1529 1529 1530 1531 1531 1532 1533 1534 1535 1536 1537 1538 1539 1540 1541 1542 1543 1544 1546 1547 1549 1550 1551 1552 1553 1553 1554 1555 1555 1556 1556 1557 1557 1558 1558 1559
1525 1526 1527 1528 1528 1529 1529 1529 1530 1531 1531 1532 1533 1534 1535 1536 1537 1538 1539 1540 1541 1542 1543 1544 1545 1547 1548 1549 1551 1552 1552 1553 1554 1555 1555 1556 1556 1557 1557 1558 1558 1559 1559
1527 1528 1529 1529 1529 1530 1530 1530 1530 1531 1532 1533 1534 1535 1537 1538 1538 1539 1540 1541 1542 1543 1544 1544 1546 1547 1549 1550 1551 1552 1553 1554 1555 1555 1556 1556 1557 1557 1558 1558 1559 1559 1560
1528 1529 1530 1530 1531 1531 1531 1531 1531 1532 1533 1534 1535 1537 1538 1539 1540 1541 1541 1542 1543 1544 1545 1545 1547 1548 1550 1551 1552 1553 1554 1555 1555 1556 1557 1557 1557 1558 1558 1559 1559 1560 1560
1529 1530 1531 1532 1532 1532 1533 1533 1532 1533 1534 1535 1536 1538 1539 1540 1541 1542 1542 1543 1544 1545 1546 1547 1548 1549 1550 1552 1553 1554 1554 1555 1556 1557 1557 1558 1558 1558 1558 1559 1559 1560 1561
1531 1532 1533 1533 1534 1534 1534 1534 1535 1535 1536 1537 1538 1539 1540 1540 1541 1542 1543 1544 1545 1546 1547 1548 1549 1550 1551 1552 1553 1554 1555 1556 1556 1557 1558 1558 1558 1559 1559 1559 1560 1560 1561
1532 1533 1534 1535 1535 1535 1536 1536 1536 1537 1538 1539 1539 1540 1540 1541 1542 1543 1544 1545 1546 1547 1547 1549 1549 1551 1552 1553 1554 1555 1556 1556 1557 1557 1558 1558 1558 1559 1559 1559 1559 1560 1561
1533 1535 1536 1536 1536 1537 1537 1538 1538 1539 1539 1540 1541 1541 1542 1542 1543 1544 1545 1546 1547 1548 1548 1550 1551 1552 1553 1553 1554 1555 1556 1557 1557 1558 1558 1558 1559 1559 1559 1559 1560 1560 1561
1534 1536 1537 1538 1538 1538 1539 1540 1540 1540 1541 1541 1542 1542 1543 1543 1544 1545 1546 1547 1548 1549 1549 1551 1552 1553 1553 1554 1555 1556 1556 1557 1557 1557 1558 1558 1558 1558 1559 1559 1560 1560 1560
1534 1536 1538 1539 1539 1540 1540 1541 1541 1542 1542 1542 1543 1543 1544 1544 1545 1546 1547 1548 1549 1549 1550 1551 1552 1553 1554 1554 1555 1556 1556 1556 1557 1557 1557 1558 1558 1558 1558 1558 1559 1560 1560
1535 1536 1538 1539 1540 1541 1541 1542 1543 1543 1543 1543 1543 1544 1544 1545 1546 1547 1547 1548 1549 1550 1551 1551 1552 1553 1554 1555 1555 1556 1556 1556 1556 1557 1557 1557 1557 1558 1558 1558 1558 1559 1559
1535 1537 1538 1540 1541 1542 1543 1543 1544 1544 1544 1544 1545 1545 1546 1546 1547 1547 1548 1549 1550 1550 1551 1551 1552 1553 1554 1554 1555 1556 1556 1556 1556 1557 1557 1557 1557 1558 1557 1557 1558 1558 1559
1536 1537 1539 1540 1541 1542 1543 1544 1544 1545 1545 1546 1546 1546 1546 1547 1547 1548 1549 1549 1550 1551 1551 1552 1552 1553 1554 1554 1555 1555 1556 1556 1556 1557 1557 1557 1557 1557 1557 1557 1557 1557 1558
1536 1537 1539 1540 1542 1543 1544 1544 1545 1545 1546 1546 1547 1547 1547 1547 1548 1548 1549 1549 1550 1551 1551 1552 1553 1553 1554 1554 1555 1555 1556 1556 1556 1556 1557 1557 1557 1557 1557 1557 1557 1557 1557
1535 1537 1539 1540 1541 1543 1544 1545 1545 1546 1546 1546 1547 1547 1548 1548 1548 1549 1549 1550 1550 1551 1551 1552 1553 1553 1553 1554 1554 1555 1555 1556 1556 1556 1556 1556 1556 1556 1556 1556 1556 1556 1556
1535 1536 1538 1540 1541 1542 1544 1545 1545 1546 1546 1547 1547 1547 1548 1548 1548 1549 1549 1549 1550 1551 1551 1551 1552 1552 1553 1553 1554 1554 1554 1555 1555 1555 1555 1555 1556 1556 1556 1556 1556 1556 1556
1534 1536 1537 1539 1540 1542 1543 1544 1545 1545 1546 1546 1547 1547 1548 1548 1548 1549 1549 1549 1550 1550 1550 1551 1551 1551 1552 1552 1553 1553 1553 1554 1554 1554 1554 1554 1555 1555 1555 1555 1555 1555 1555
1533 1535 1536 1538 1539 1541 1542 1543 1544 1544 1545 1546 1547 1547 1548 1548 1548 1548 1549 1549 1549 1549 1550 1550 1550 1551 1551 1551 1552 1552 1552 1553 1553 1553 1553 1554 1554 1554 1554 1554 1554 1554 1554
1531 1533 1534 1536 1538 1539 1540 1542 1543 1544 1545 1546 1546 1547 1547 1547 1548 1548 1548 1548 1548 1548 1549 1549 1549 1550 1550 1551 1551 1551 1551 1553 1552 1552 1553 1553 1553 1553 1553 1553 1553 1553 1552
1528 1530 1532 1534 1536 1538 1539 1541 1542 1543 1544 1545 1545 1546 1547 1547 1547 1547 1548 1548 1548 1548 1548 1548 1549 1549 1549 1550 1550 1551 1551 1550 1551 1552 1552 1552 1552 1552 1552 1551 1551 1551 1551
1524 1528 1530 1533 1535 1536 1538 1539 1540 1541 1542 1544 1545 1545 1546 1546 1547 1547 1547 1547 1547 1547 1547 1548 1548 1548 1549 1549 1549 1549 1550 1550 1550 1550 1551 1550 1550 1550 1550 1550 1549 1549 1549
1522 1525 1528 1531 1533 1535 1536 1538 1539 1540 1542 1543 1544 1545 1545 1546 1546 1546 1547 1546 1546 1546 1547 1547 1547 1547 1548 1548 1548 1548 1548 1549 1549 1549 1548 1549 1549 1548 1549 1548 1548 1547 1547
1520 1523 1526 1529 1531 1533 1535 1537 1538 1539 1540 1542 1543 1543 1544 1545 1545 1545 1546 1546 1546 1546 1546 1546 1546 1546 1546 1547 1547 1547 1547 1547 1547 1547 1547 1546 1546 1547 1547 1546 1546 1545 1545